User: anonymous   Login
Location: ?astrovice
(49.6513°N, 14.9287°E)
Time: 23:46:57
(UTC+00:00)
Language:

STARLINK-1230 - Orbit

View from above orbital plane
View from above orbital plane
View from above satellite
View from above satellite

Ground track
Ground track

The orbit data is extracted from the following two-line orbital elements,

1 45189U 20012M   20188.83334491  .00025294  00000-0  17487-2 0  9997
2 45189  52.9994 347.5440 0001437  97.2563  12.0408 15.05585340 21634
Epoch (UTC): 06 July 2020 20:00:01
Eccentricity: 0.0001437
inclination: 52.9994°
perigee height: 549 km
apogee height: 551 km
right ascension of ascending node: 347.5440°
argument of perigee: 97.2563°
revolutions per day: 15.05585340
mean anomaly at epoch: 12.0408°
orbit number at epoch: 2163

The dashed part of the orbit path shows where the satellite is in the earth's shadow,  

DLR